This is the latest recevied weather packets stored in our database for station/object KI5RAB. If no packets are shown the sender has not sent any weather packets the latest 10 day(s).
| Time | Temp. | Humidity | Pressure | Rain* | Wind** | Luminosity | Snow |
|---|---|---|---|---|---|---|---|
| 1787849469 | 35° C | 51% | 1019.8 hPa | 0 mm | - | 599 W/m² | - |
| 1787849167 | 34.44° C | 54% | 1019.8 hPa | 0 mm | - | 588 W/m² | - |
| 1787848867 | 34.44° C | 54% | 1019.6 hPa | 0 mm | - | 583 W/m² | - |
| 1787848567 | 33.89° C | 55% | 1019.9 hPa | 0 mm | - | 571 W/m² | - |
| 1787848261 | 33.89° C | 55% | 1019.8 hPa | 0 mm | - | 559 W/m² | - |
| 1787847956 | 33.89° C | 54% | 1020 hPa | 0 mm | - | 554 W/m² | - |
| 1787847655 | 33.89° C | 57% | 1020 hPa | 0 mm | - | 543 W/m² | - |
| 1787847351 | 33.33° C | 59% | 1020 hPa | 0 mm | - | 533 W/m² | - |
| 1787847047 | 33.33° C | 58% | 1019.9 hPa | 0 mm | - | 522 W/m² | - |
| 1787846742 | 33.33° C | 60% | 1019.8 hPa | 0 mm | - | 510 W/m² | - |
| 1787846437 | 32.78° C | 62% | 1020 hPa | 0 mm | - | 500 W/m² | - |
| 1787846133 | 32.78° C | 61% | 1019.9 hPa | 0 mm | - | 488 W/m² | - |
| 1787845828 | 32.22° C | 62% | 1019.9 hPa | 0 mm | - | 477 W/m² | - |
| 1787845524 | 32.22° C | 61% | 1019.9 hPa | 0 mm | - | 466 W/m² | - |
| 1787845219 | 31.67° C | 64% | 1020 hPa | 0 mm | - | 452 W/m² | - |
| 1787844914 | 31.67° C | 63% | 1020.1 hPa | 0 mm | - | 437 W/m² | - |
| 1787844614 | 31.67° C | 65% | 1020.1 hPa | 0 mm | - | 424 W/m² | - |
| 1787844309 | 31.11° C | 66% | 1020.2 hPa | 0 mm | - | 412 W/m² | - |
| 1787844009 | 30.56° C | 68% | 1020.1 hPa | 0 mm | - | 397 W/m² | - |
| 1787843708 | 30.56° C | 68% | 1020.1 hPa | 0 mm | - | 382 W/m² | - |
| 1787843404 | 30.56° C | 68% | 1020 hPa | 0 mm | - | 367 W/m² | - |
| 1787843100 | 30.56° C | 69% | 1020 hPa | 0 mm | - | 351 W/m² | - |
| 1787842799 | 30.56° C | 70% | 1019.8 hPa | 0 mm | - | 338 W/m² | - |
| 1787842495 | 30° C | 69% | 1019.8 hPa | 0 mm | - | 315 W/m² | - |
| 1787842195 | 30° C | 71% | 1020 hPa | 0 mm | - | 304 W/m² | - |
* Rain latest hour (hover to see other rain measurements)
** Current wind speed in m/s (hover to see current wind gust speed)